Date String (YYYY-MM-DD hh:mm:ss) UTC,Instrument flags,Ambient pressure (hPa),Sample flow (lpm),Bypass flow (lpm),Sample temperature (°C),Ambient temperature (°C),ASC tube jacket temperature (°C),LED temperature (°C),Box temperature (°C),Sample RH (%),Span deviation,Mass concentration (μg/m³),Mass concentration (μg/m³),Mass concentration (μg/m³)
DateTimeUTC,F1_M11,P_M11,Q1_M11,Q2_M11,T1_M11,T2_M11,T3_M11,T4_M11,T5_M11,U1_M11,ZSPAN_M11,X0_M11,X2_M11,X1_M11
2022-06-01 06:00:00,,0833.1,5.00,0.00,27.4,26.3,00.0,36.3,29.3,20.4,0000.0,0002.17,0000.96,0000.76
2022-06-01 06:01:00,,0833.1,4.99,0.00,27.4,26.3,00.0,36.3,29.3,20.4,0000.0,0002.15,0000.93,0000.73
2022-06-01 06:02:00,,0833.1,5.00,0.00,27.4,26.3,00.0,36.3,29.3,20.3,0000.0,0002.15,0000.91,0000.71
2022-06-01 06:03:00,,0833.2,5.00,0.00,27.4,26.3,00.0,36.3,29.3,20.2,0000.0,0002.10,0000.87,0000.67
2022-06-01 06:04:00,,0833.2,5.01,0.00,27.4,26.3,00.0,36.3,29.3,20.1,0000.0,0002.00,0000.81,0000.64
2022-06-01 06:05:00,,0833.1,5.00,0.00,27.4,26.3,00.0,36.3,29.3,20.1,0000.0,0002.00,0000.81,0000.63
2022-06-01 06:06:00,,0833.1,5.01,0.00,27.4,26.3,00.0,36.3,29.3,20.0,0000.0,0001.96,0000.75,0000.62
2022-06-01 06:07:00,,0833.1,5.00,0.00,27.4,26.3,00.0,36.3,29.3,19.9,0000.0,0001.99,0000.76,0000.62
2022-06-01 06:08:00,,0833.1,4.98,0.00,27.4,26.3,00.0,36.3,29.3,19.7,0000.0,0002.04,0000.79,0000.63
2022-06-01 06:09:00,,0833.3,5.00,0.00,27.4,26.2,00.0,36.3,29.3,19.6,0000.0,0001.56,0000.77,0000.63
2022-06-01 06:10:00,,0833.3,5.01,0.00,27.4,26.2,00.0,36.3,29.2,19.5,0000.0,0001.14,0000.76,0000.62
2022-06-01 06:11:00,,0833.4,5.00,0.00,27.4,26.2,00.0,36.3,29.2,19.6,0000.0,0001.12,0000.76,0000.62
2022-06-01 06:12:00,,0833.3,5.00,0.00,27.3,26.2,00.0,36.3,29.2,19.6,0000.0,0001.12,0000.76,0000.63
2022-06-01 06:13:00,,0833.2,4.99,0.00,27.3,26.2,00.0,36.3,29.2,19.7,0000.0,0001.15,0000.76,0000.63
2022-06-01 06:14:00,,0833.1,5.00,0.00,27.3,26.2,00.0,36.3,29.2,19.8,0000.0,0001.27,0000.81,0000.65
2022-06-01 06:15:00,,0833.1,5.01,0.00,27.3,26.2,00.0,36.3,29.2,19.8,0000.0,0001.33,0000.84,0000.67
2022-06-01 06:16:00,,0833.1,5.00,0.00,27.3,26.2,00.0,36.3,29.2,20.2,0000.0,0001.44,0000.89,0000.69
2022-06-01 06:17:00,,0833.1,4.99,0.00,27.3,26.2,00.0,36.3,29.2,20.5,0000.0,0002.01,0000.99,0000.73
2022-06-01 06:18:00,,0833.1,5.00,0.00,27.3,26.2,00.0,36.3,29.2,20.6,0000.0,0002.66,0001.04,0000.76
2022-06-01 06:19:00,,0833.1,5.00,0.00,27.3,26.2,00.0,36.3,29.2,20.8,0000.0,0002.77,0001.07,0000.79
2022-06-01 06:20:00,,0833.2,5.00,0.00,27.3,26.2,00.0,36.3,29.2,20.8,0000.0,0002.89,0001.12,0000.82
2022-06-01 06:21:00,,0833.1,5.00,0.00,27.3,26.2,00.0,36.3,29.2,20.8,0000.0,0003.06,0001.20,0000.86
2022-06-01 06:22:00,,0833.1,5.00,0.00,27.3,26.2,00.0,36.3,29.2,20.9,0000.0,0003.29,0001.31,0000.90
2022-06-01 06:23:00,,0833.1,5.00,0.00,27.3,26.2,00.0,36.3,29.2,21.0,0000.0,0003.53,0001.40,0000.94
2022-06-01 06:24:00,,0833.0,5.01,0.00,27.3,26.2,00.0,36.3,29.2,21.0,0000.0,0003.58,0001.44,0000.97
2022-06-01 06:25:00,,0833.0,5.01,0.00,27.3,26.2,00.0,36.3,29.2,21.1,0000.0,0003.63,0001.45,0000.99
2022-06-01 06:26:00,,0832.9,5.00,0.00,27.3,26.2,00.0,36.3,29.2,21.1,0000.0,0003.82,0001.50,0001.01
2022-06-01 06:27:00,,0832.8,5.00,0.00,27.3,26.2,00.0,36.2,29.2,21.1,0000.0,0004.07,0001.59,0001.03
2022-06-01 06:28:00,,0832.8,5.00,0.00,27.3,26.2,00.0,36.2,29.2,21.1,0000.0,0003.82,0001.60,0001.03
2022-06-01 06:29:00,,0833.0,5.00,0.00,27.3,26.2,00.0,36.2,29.2,21.1,0000.0,0003.18,0001.60,0001.03
2022-06-01 06:30:00,,0833.0,5.01,0.00,27.3,26.2,00.0,36.2,29.2,21.1,0000.0,0003.17,0001.59,0001.03
2022-06-01 06:31:00,,0833.1,5.01,0.00,27.3,26.2,00.0,36.2,29.2,21.1,0000.0,0003.38,0001.59,0001.04
2022-06-01 06:32:00,,0833.1,4.99,0.00,27.3,26.2,00.0,36.2,29.2,21.2,0000.0,0003.37,0001.59,0001.03
2022-06-01 06:33:00,,0833.1,5.00,0.00,27.3,26.2,00.0,36.2,29.2,21.2,0000.0,0003.24,0001.55,0001.03
2022-06-01 06:34:00,,0833.1,4.99,0.00,27.3,26.2,00.0,36.2,29.2,21.3,0000.0,0002.97,0001.45,0001.01
2022-06-01 06:35:00,,0833.1,4.99,0.00,27.3,26.2,00.0,36.2,29.2,21.3,0000.0,0002.82,0001.41,0001.01
2022-06-01 06:36:00,,0833.0,5.01,0.00,27.3,26.2,00.0,36.2,29.2,21.4,0000.0,0002.93,0001.43,0001.01
2022-06-01 06:37:00,,0833.1,4.99,0.00,27.3,26.2,00.0,36.2,29.2,21.4,0000.0,0002.81,0001.42,0001.01
2022-06-01 06:38:00,,0833.0,5.00,0.00,27.3,26.2,00.0,36.2,29.2,21.4,0000.0,0002.62,0001.35,0001.01
2022-06-01 06:39:00,,0833.0,5.00,0.00,27.3,26.2,00.0,36.2,29.2,21.4,0000.0,0002.64,0001.36,0001.03
2022-06-01 06:40:00,,0833.1,5.00,0.00,27.3,26.2,00.0,36.2,29.2,21.4,0000.0,0002.68,0001.38,0001.04
2022-06-01 06:41:00,,0833.0,5.01,0.00,27.3,26.2,00.0,36.2,29.2,21.4,0000.0,0002.70,0001.42,0001.05
2022-06-01 06:42:00,,0832.9,5.00,0.00,27.3,26.2,00.0,36.2,29.2,21.4,0000.0,0002.40,0001.43,0001.06
2022-06-01 06:43:00,,0832.9,4.99,0.00,27.3,26.2,00.0,36.2,29.2,21.4,0000.0,0002.43,0001.47,0001.06
2022-06-01 06:44:00,,0832.8,5.00,0.00,27.3,26.2,00.0,36.2,29.2,21.4,0000.0,0002.55,0001.54,0001.06
2022-06-01 06:45:00,,0832.9,5.01,0.00,27.3,26.2,00.0,36.2,29.2,21.4,0000.0,0002.76,0001.63,0001.08
2022-06-01 06:46:00,,0832.9,5.01,0.00,27.3,26.2,00.0,36.2,29.2,21.4,0000.0,0003.68,0001.74,0001.08
2022-06-01 06:47:00,,0832.9,5.00,0.00,27.3,26.2,00.0,36.2,29.2,21.7,0000.0,0004.19,0001.77,0001.08
2022-06-01 06:48:00,,0832.9,5.00,0.00,27.3,26.2,00.0,36.2,29.2,23.1,0000.0,0004.20,0001.80,0001.09
2022-06-01 06:49:00,,0832.9,5.00,0.00,27.3,26.2,00.0,36.2,29.2,22.7,0000.0,0004.11,0001.79,0001.07
2022-06-01 06:50:00,,0832.9,5.00,0.00,27.3,26.2,00.0,36.2,29.2,21.4,0000.0,0003.96,0001.72,0001.04
2022-06-01 06:51:00,,0832.8,4.99,0.00,27.3,26.2,00.0,36.2,29.2,21.0,0000.0,0003.85,0001.67,0001.01
2022-06-01 06:52:00,,0832.9,5.01,0.00,27.3,26.2,00.0,36.2,29.2,20.5,0000.0,0003.72,0001.59,0000.96
2022-06-01 06:53:00,,0832.8,5.00,0.00,27.3,26.2,00.0,36.2,29.2,20.3,0000.0,0003.63,0001.53,0000.92
2022-06-01 06:54:00,,0832.9,5.00,0.00,27.3,26.2,00.0,36.2,29.2,20.1,0000.0,0003.52,0001.45,0000.90
2022-06-01 06:55:00,,0833.0,4.99,0.00,27.3,26.2,00.0,36.2,29.2,20.0,0000.0,0004.88,0001.33,0000.86
2022-06-01 06:56:00,,0833.1,5.01,0.00,27.3,26.2,00.0,36.2,29.2,19.9,0000.0,0004.77,0001.24,0000.82
2022-06-01 06:57:00,,0833.0,5.00,0.00,27.3,26.2,00.0,36.2,29.2,19.8,0000.0,0003.87,0001.13,0000.78
2022-06-01 06:58:00,,0832.9,5.00,0.00,27.3,26.2,00.0,36.2,29.2,19.6,0000.0,0003.36,0001.08,0000.75
2022-06-01 06:59:00,,0832.8,5.00,0.00,27.3,26.2,00.0,36.2,29.2,19.4,0000.0,0003.24,0000.99,0000.71
